TimeMDT,TemperatureF,Dew PointF,Humidity,Sea Level PressureIn,VisibilityMPH,Wind Direction,Wind SpeedMPH,Gust SpeedMPH,PrecipitationIn,Events,Conditions,WindDirDegrees,DateUTC
12:54 AM,28.0,-9.0,20,30.21,10.0,SSE,5.8,-,N/A,,Clear,150,2013-03-20 06:54:00
1:54 AM,26.1,-9.0,21,30.19,10.0,SSE,5.8,-,N/A,,Clear,150,2013-03-20 07:54:00
2:54 AM,24.1,-8.0,24,30.18,10.0,SE,6.9,-,N/A,,Clear,140,2013-03-20 08:54:00
3:54 AM,26.1,-8.0,22,30.13,10.0,SSE,3.5,-,N/A,,Clear,160,2013-03-20 09:54:00
4:54 AM,27.0,-7.1,23,30.09,10.0,SSE,8.1,-,N/A,,Clear,160,2013-03-20 10:54:00
5:54 AM,21.9,-5.1,30,30.12,10.0,SE,3.5,-,N/A,,Clear,140,2013-03-20 11:54:00
6:54 AM,25.0,-2.9,30,30.09,10.0,SSE,5.8,-,N/A,,Overcast,160,2013-03-20 12:54:00
7:54 AM,24.1,-2.0,32,30.11,10.0,Calm,Calm,-,N/A,,Partly Cloudy,0,2013-03-20 13:54:00
8:54 AM,28.9,-0.9,28,30.07,10.0,North,3.5,-,N/A,,Scattered Clouds,360,2013-03-20 14:54:00
9:54 AM,32.0,-0.9,24,30.05,10.0,Calm,Calm,-,N/A,,Scattered Clouds,0,2013-03-20 15:54:00
10:54 AM,37.0,1.0,22,30.02,10.0,West,5.8,-,N/A,,Partly Cloudy,270,2013-03-20 16:54:00
11:54 AM,37.9,3.0,23,30.00,10.0,West,11.5,-,N/A,,Overcast,270,2013-03-20 17:54:00
12:54 PM,39.0,19.9,46,30.00,8.0,WSW,16.1,27.6,N/A,,Overcast,250,2013-03-20 18:54:00
1:15 PM,35.6,24.8,65,29.99,2.5,West,15.0,-,0.00,Snow,Light Snow,260,2013-03-20 19:15:00
1:20 PM,33.8,28.4,81,29.98,0.8,West,17.3,-,0.00,Snow,Light Snow,260,2013-03-20 19:20:00
1:35 PM,32.0,30.2,93,29.97,0.5,WSW,12.7,-,0.00,Fog-Snow,Snow,250,2013-03-20 19:35:00
1:49 PM,32.0,30.2,93,29.96,1.0,WSW,8.1,-,0.00,Snow,Light Snow,250,2013-03-20 19:49:00
1:54 PM,32.0,30.9,96,30.03,1.2,West,9.2,-,0.00,Snow,Light Snow,260,2013-03-20 19:54:00
2:10 PM,33.8,32.0,93,29.95,2.0,SW,8.1,-,0.00,Snow,Light Snow,220,2013-03-20 20:10:00
2:18 PM,33.8,32.0,93,29.94,6.0,SW,6.9,-,0.00,Snow,Light Snow,230,2013-03-20 20:18:00
2:54 PM,37.0,32.0,82,29.98,10.0,West,4.6,-,0.00,,Overcast,280,2013-03-20 20:54:00
3:54 PM,42.1,30.9,65,29.92,10.0,West,11.5,-,N/A,,Overcast,280,2013-03-20 21:54:00
4:54 PM,44.1,28.9,55,29.88,10.0,West,18.4,24.2,N/A,,Mostly Cloudy,260,2013-03-20 22:54:00
5:54 PM,43.0,30.9,62,29.90,10.0,West,16.1,-,N/A,,Partly Cloudy,260,2013-03-20 23:54:00
6:54 PM,43.0,30.9,62,29.86,10.0,WSW,25.3,31.1,0.00,Rain,Light Rain,250,2013-03-21 00:54:00
7:54 PM,41.0,30.0,65,29.85,10.0,West,21.9,-,0.00,,Clear,260,2013-03-21 01:54:00
8:54 PM,39.0,28.9,67,29.85,10.0,Calm,Calm,-,N/A,,Scattered Clouds,0,2013-03-21 02:54:00
9:54 PM,37.0,30.0,76,29.82,10.0,West,12.7,20.7,N/A,,Clear,270,2013-03-21 03:54:00
10:54 PM,35.1,28.9,78,29.80,10.0,SSW,9.2,-,N/A,,Clear,200,2013-03-21 04:54:00